Santa Maria, CA

7:22 PM PDT on May 27, 2017 (GMT -0700)
Santa Maria Public Airport / Captain G. Allan Hancock Field

Weather History for KSMX - April, 2013

Change the Weather History Date:

Friday, April 5, 2013

  Actual Average Record
Temperature  
Mean Temperature 60 °F 55 °F  
Max Temperature 69 °F 66 °F 99 °F (1989)
Min Temperature 50 °F 43 °F 30 °F (1929)
Degree Days  
Heating Degree Days 5 10  
Month to date heating degree days 25 51  
Since 1 July heating degree days 2000 2224  
Cooling Degree Days 0 0  
Month to date cooling degree days 0 0  
Year to date cooling degree days 0 2  
Growing Degree Days 10 (Base 50)    
Moisture  
Dew Point 52 °F    
Average Humidity 77    
Maximum Humidity 100    
Minimum Humidity 53    
Precipitation  
Precipitation 0.00 in 0.05 in 1.08 in (1969)
Month to date precipitation 0.09 0.24  
Year to date precipitation 2.43 8.62  
Since 1 July precipitation 6.16  
Sea Level Pressure  
Sea Level Pressure 30.13 in    
Wind  
Wind Speed 13 mph (WNW)    
Max Wind Speed 31 mph    
Max Gust Speed 38 mph    
Visibility 7 miles    
Events      
T = Trace of Precipitation, MM = Missing Value Source: NWS Daily Summary

Daily Weather History Graph

Daily Weather History Graph

Search for Another Location

Airport or City:

Trip Planner

Search our weather history database for the weather conditions in past years. The results will help you decide how hot, cold, wet, or windy it might be!

Date:

Astronomy

Apr. 05, 2013 Rise Set
Actual Time 6:42 AM PDT 7:26 PM PDT
Civil Twilight 6:17 AM PDT 7:52 PM PDT
Nautical Twilight 5:47 AM PDT 8:22 PM PDT
Astronomical Twilight 5:16 AM PDT 8:53 PM PDT
Moon 3:42 AM PDT (4/5) 3:05 PM PDT (4/5)
Length of Visible Light 13h 35m
Length of Day
12h 43m
Waning Crescent, 22% of the Moon is Illuminated
Apr 5
Waning Crescent
Apr 10
New
Apr 18
First Quarter
Apr 25
Full
May 2
Last Quarter

Hourly Weather History & Observations

Time (PDT) Temp. Dew Point Humidity Pressure Visibility Wind Dir Wind Speed Gust Speed Precip Events Conditions
12:05 AM 55.4 °F 53.6 °F 94% 30.13 in 8.0 mi West 5.8 mph - N/A   Overcast
12:51 AM 55.9 °F 54.0 °F 93% 30.13 in 10.0 mi Calm Calm - N/A   Overcast
1:51 AM 55.9 °F 54.0 °F 93% 30.13 in 8.0 mi WNW 5.8 mph - N/A   Overcast
2:04 AM 55.4 °F 53.6 °F 94% 30.13 in 5.0 mi NW 6.9 mph - N/A   Overcast
2:16 AM 55.4 °F 53.6 °F 94% 30.13 in 1.8 mi WNW 9.2 mph - N/A   Overcast
2:24 AM 55.4 °F 53.6 °F 94% 30.13 in 0.8 mi WNW 10.4 mph - N/A   Mist
2:48 AM 53.6 °F 53.6 °F 100% 30.13 in 1.5 mi WNW 9.2 mph - N/A   Overcast
2:51 AM 54.0 °F 53.1 °F 97% 30.14 in 1.8 mi WNW 9.2 mph - N/A   Overcast
3:00 AM 53.6 °F 53.6 °F 100% 30.13 in 2.5 mi WNW 8.1 mph - N/A   Overcast
3:08 AM 53.6 °F 53.6 °F 100% 30.12 in 3.0 mi NW 8.1 mph - N/A   Overcast
3:33 AM 53.6 °F 53.6 °F 100% 30.12 in 2.5 mi WNW 5.8 mph - N/A   Overcast
3:46 AM 53.6 °F 53.6 °F 100% 30.12 in 3.0 mi WNW 6.9 mph - N/A   Overcast
3:51 AM 54.0 °F 53.1 °F 97% 30.12 in 3.0 mi WNW 8.1 mph - N/A   Overcast
4:51 AM 54.0 °F 53.1 °F 97% 30.12 in 5.0 mi WNW 8.1 mph - N/A   Overcast
5:23 AM 53.6 °F 51.8 °F 94% 30.11 in 1.8 mi WNW 10.4 mph - N/A   Overcast
5:29 AM 53.6 °F 51.8 °F 94% 30.11 in 0.8 mi WNW 9.2 mph - N/A   Mist
5:39 AM 53.6 °F 51.8 °F 94% 30.11 in 1.5 mi WNW 8.1 mph - N/A   Overcast
5:45 AM 53.6 °F 51.8 °F 94% 30.11 in 3.0 mi WNW 6.9 mph - N/A   Overcast
5:51 AM 53.1 °F 52.0 °F 96% 30.12 in 3.0 mi WNW 6.9 mph - N/A   Overcast
6:51 AM 53.1 °F 52.0 °F 96% 30.13 in 3.0 mi WNW 8.1 mph - N/A   Overcast
7:51 AM 54.0 °F 51.1 °F 90% 30.15 in 10.0 mi NW 9.2 mph 21.9 mph N/A   Overcast
8:39 AM 55.4 °F 51.8 °F 88% 30.15 in 10.0 mi NW 10.4 mph - N/A   Overcast
8:51 AM 55.9 °F 52.0 °F 87% 30.16 in 10.0 mi WNW 10.4 mph - N/A   Overcast
9:51 AM 60.1 °F 52.0 °F 75% 30.16 in 10.0 mi NW 9.2 mph - N/A   Mostly Cloudy
10:51 AM 64.9 °F 52.0 °F 63% 30.16 in 10.0 mi NW 6.9 mph - N/A   Scattered Clouds
11:51 AM 66.9 °F 52.0 °F 59% 30.14 in 10.0 mi WNW 12.7 mph - N/A   Mostly Cloudy
12:51 PM 69.1 °F 52.0 °F 54% 30.13 in 10.0 mi WNW 20.7 mph 24.2 mph N/A   Scattered Clouds
1:51 PM 66.9 °F 52.0 °F 59% 30.13 in 10.0 mi WNW 27.6 mph 34.5 mph N/A   Partly Cloudy
2:51 PM 64.0 °F 51.1 °F 63% 30.11 in 10.0 mi WNW 21.9 mph 33.4 mph N/A   Mostly Cloudy
3:51 PM 62.1 °F 51.1 °F 67% 30.10 in 10.0 mi WNW 21.9 mph - N/A   Mostly Cloudy
4:51 PM 59.0 °F 51.1 °F 75% 30.10 in 10.0 mi WNW 24.2 mph 33.4 mph N/A   Mostly Cloudy
5:51 PM 60.1 °F 51.1 °F 72% 30.10 in 10.0 mi WNW 21.9 mph 28.8 mph N/A   Mostly Cloudy
6:51 PM 55.9 °F 51.1 °F 84% 30.09 in 10.0 mi WNW 18.4 mph 25.3 mph N/A   Partly Cloudy
7:51 PM 54.0 °F 51.1 °F 90% 30.12 in 10.0 mi WNW 13.8 mph - N/A   Partly Cloudy
8:51 PM 53.1 °F 50.0 °F 89% 30.14 in 10.0 mi WNW 10.4 mph - N/A   Clear
9:51 PM 52.0 °F 50.0 °F 93% 30.16 in 10.0 mi WNW 8.1 mph - N/A   Clear
10:51 PM 52.0 °F 50.0 °F 93% 30.16 in 9.0 mi WNW 8.1 mph - N/A   Clear
11:51 PM 52.0 °F 50.0 °F 93% 30.16 in 9.0 mi NW 9.2 mph - N/A   Clear